TimeEST,TemperatureF,Dew PointF,Humidity,Sea Level PressureIn,VisibilityMPH,Wind Direction,Wind SpeedMPH,Gust SpeedMPH,PrecipitationIn,Events,Conditions,WindDirDegrees,DateUTC
12:15 AM,64.4,64.4,100,30.06,10.0,SSE,8.1,-,N/A,,Mostly Cloudy,160,2013-01-30 05:15:00
12:35 AM,64.4,64.4,100,30.06,10.0,South,8.1,-,N/A,,Scattered Clouds,170,2013-01-30 05:35:00
1:35 AM,62.6,62.6,100,30.05,10.0,SSE,5.8,-,N/A,,Clear,160,2013-01-30 06:35:00
1:55 AM,62.6,62.6,100,30.04,10.0,SSE,5.8,-,N/A,,Clear,160,2013-01-30 06:55:00
2:15 AM,62.6,62.6,100,30.04,10.0,SSE,4.6,-,N/A,,Mostly Cloudy,160,2013-01-30 07:15:00
2:55 AM,64.4,64.4,100,30.03,10.0,South,4.6,-,N/A,,Overcast,170,2013-01-30 07:55:00
3:15 AM,64.4,64.4,100,30.02,10.0,South,6.9,-,N/A,,Overcast,170,2013-01-30 08:15:00
3:35 AM,64.4,64.4,100,30.00,10.0,SSE,8.1,-,N/A,,Light Drizzle,160,2013-01-30 08:35:00
3:55 AM,64.4,64.4,100,29.99,10.0,South,8.1,-,N/A,,Overcast,170,2013-01-30 08:55:00
4:15 AM,66.2,66.2,100,29.98,10.0,South,10.4,16.1,N/A,,Overcast,170,2013-01-30 09:15:00
4:35 AM,66.2,66.2,100,29.97,10.0,SSE,13.8,18.4,N/A,,Overcast,160,2013-01-30 09:35:00
4:55 AM,66.2,66.2,100,29.95,10.0,SSE,11.5,17.3,N/A,,Scattered Clouds,160,2013-01-30 09:55:00
5:15 AM,66.2,66.2,100,29.95,10.0,South,11.5,19.6,N/A,,Scattered Clouds,190,2013-01-30 10:15:00
5:35 AM,66.2,66.2,100,29.96,10.0,South,11.5,-,N/A,,Mostly Cloudy,190,2013-01-30 10:35:00
5:55 AM,66.2,66.2,100,29.97,10.0,SSW,10.4,-,N/A,,Overcast,200,2013-01-30 10:55:00
6:15 AM,66.2,66.2,100,29.96,10.0,South,11.5,-,N/A,,Overcast,190,2013-01-30 11:15:00
6:35 AM,66.2,66.2,100,29.96,10.0,South,10.4,-,N/A,,Overcast,190,2013-01-30 11:35:00
6:55 AM,66.2,66.2,100,29.96,10.0,South,8.1,-,N/A,,Overcast,190,2013-01-30 11:55:00
7:35 AM,66.2,66.2,100,29.94,10.0,South,10.4,16.1,N/A,,Overcast,180,2013-01-30 12:35:00
7:55 AM,68.0,68.0,100,29.94,10.0,South,11.5,17.3,N/A,,Overcast,180,2013-01-30 12:55:00
8:15 AM,68.0,68.0,100,29.92,10.0,South,10.4,-,N/A,,Overcast,170,2013-01-30 13:15:00
8:35 AM,68.0,68.0,100,29.92,10.0,South,11.5,-,N/A,,Overcast,190,2013-01-30 13:35:00
8:55 AM,69.8,68.0,94,29.93,10.0,SSW,10.4,-,N/A,,Overcast,200,2013-01-30 13:55:00
9:15 AM,69.8,68.0,94,29.94,10.0,South,12.7,-,N/A,,Overcast,190,2013-01-30 14:15:00
9:35 AM,71.6,68.0,88,29.93,10.0,SSW,10.4,21.9,N/A,,Overcast,210,2013-01-30 14:35:00
9:55 AM,71.6,68.0,88,29.92,10.0,SSW,13.8,23.0,N/A,,Overcast,200,2013-01-30 14:55:00
10:15 AM,71.6,66.2,83,29.91,10.0,South,18.4,25.3,N/A,,Overcast,190,2013-01-30 15:15:00
10:35 AM,73.4,62.6,69,29.90,10.0,SSW,19.6,29.9,N/A,,Overcast,200,2013-01-30 15:35:00
10:55 AM,71.6,64.4,78,29.90,10.0,SSW,24.2,28.8,N/A,,Overcast,200,2013-01-30 15:55:00
11:15 AM,71.6,64.4,78,29.89,10.0,SSW,17.3,24.2,N/A,,Overcast,210,2013-01-30 16:15:00
11:35 AM,71.6,64.4,78,29.88,10.0,SSW,13.8,20.7,N/A,,Overcast,200,2013-01-30 16:35:00
11:55 AM,71.6,64.4,78,29.87,10.0,SSW,19.6,27.6,N/A,,Overcast,210,2013-01-30 16:55:00
12:15 PM,75.2,62.6,65,29.85,10.0,South,20.7,29.9,N/A,,Overcast,190,2013-01-30 17:15:00
12:35 PM,73.4,62.6,69,29.83,10.0,SSW,20.7,29.9,N/A,,Overcast,200,2013-01-30 17:35:00
12:55 PM,75.2,60.8,61,29.82,10.0,SSW,20.7,27.6,N/A,,Overcast,200,2013-01-30 17:55:00
1:15 PM,77.0,60.8,57,29.79,10.0,SSW,20.7,32.2,N/A,,Overcast,210,2013-01-30 18:15:00
1:35 PM,78.8,60.8,54,29.76,10.0,SSW,27.6,34.5,N/A,,Overcast,200,2013-01-30 18:35:00
1:55 PM,77.0,60.8,57,29.76,10.0,SSW,21.9,38.0,N/A,,Overcast,210,2013-01-30 18:55:00
2:15 PM,75.2,60.8,61,29.75,10.0,SSW,24.2,34.5,N/A,Rain,Light Rain,200,2013-01-30 19:15:00
2:35 PM,75.2,60.8,61,29.74,10.0,SSW,23.0,29.9,N/A,,Overcast,200,2013-01-30 19:35:00
2:55 PM,77.0,60.8,57,29.73,10.0,SSW,20.7,32.2,N/A,,Overcast,200,2013-01-30 19:55:00
3:15 PM,77.0,60.8,57,29.72,10.0,SSW,21.9,33.4,N/A,,Overcast,200,2013-01-30 20:15:00
3:35 PM,75.2,60.8,61,29.71,10.0,SSW,16.1,34.5,N/A,,Overcast,200,2013-01-30 20:35:00
3:55 PM,75.2,60.8,61,29.70,10.0,SSW,20.7,39.1,N/A,,Overcast,200,2013-01-30 20:55:00
4:15 PM,75.2,60.8,61,29.69,10.0,SSW,19.6,28.8,N/A,,Overcast,200,2013-01-30 21:15:00
4:35 PM,75.2,60.8,61,29.68,10.0,SSW,27.6,36.8,N/A,,Overcast,200,2013-01-30 21:35:00
4:55 PM,75.2,62.6,65,29.67,10.0,SSW,27.6,35.7,N/A,,Overcast,200,2013-01-30 21:55:00
5:15 PM,75.2,62.6,65,29.66,10.0,South,28.8,41.4,N/A,,Overcast,190,2013-01-30 22:15:00
5:35 PM,75.2,62.6,65,29.64,10.0,SSW,23.0,38.0,N/A,,Overcast,200,2013-01-30 22:35:00
5:55 PM,75.2,62.6,65,29.63,10.0,SSW,24.2,40.3,N/A,,Overcast,200,2013-01-30 22:55:00
6:15 PM,73.4,62.6,69,29.61,10.0,SSW,20.7,29.9,N/A,,Overcast,200,2013-01-30 23:15:00
6:35 PM,75.2,62.6,65,29.61,10.0,SSW,23.0,43.7,N/A,,Overcast,200,2013-01-30 23:35:00
6:55 PM,75.2,62.6,65,29.61,10.0,SSW,19.6,33.4,N/A,Rain,Light Rain,200,2013-01-30 23:55:00
7:15 PM,64.4,64.4,100,29.66,1.8,WNW,18.4,41.4,N/A,Rain-Thunderstorm,Heavy Thunderstorms and Rain,300,2013-01-31 00:15:00
7:35 PM,60.8,60.8,100,29.73,5.0,WNW,20.7,32.2,N/A,Rain,Rain,290,2013-01-31 00:35:00
7:55 PM,57.2,57.2,100,29.74,5.0,WNW,16.1,31.1,N/A,Rain,Rain,290,2013-01-31 00:55:00
8:15 PM,55.4,55.4,100,29.76,7.0,West,12.7,24.2,N/A,Rain,Rain,260,2013-01-31 01:15:00
9:15 PM,53.6,53.6,100,29.77,10.0,WSW,5.8,-,N/A,,Overcast,250,2013-01-31 02:15:00
9:35 PM,53.6,53.6,100,29.78,10.0,WSW,8.1,-,N/A,,Overcast,240,2013-01-31 02:35:00
9:55 PM,53.6,51.8,94,29.80,10.0,WSW,11.5,-,N/A,,Overcast,250,2013-01-31 02:55:00
10:15 PM,53.6,51.8,94,29.80,10.0,West,10.4,18.4,N/A,,Overcast,260,2013-01-31 03:15:00
10:35 PM,53.6,50.0,88,29.81,10.0,West,11.5,20.7,N/A,,Overcast,270,2013-01-31 03:35:00
10:55 PM,53.6,50.0,88,29.82,10.0,West,10.4,16.1,N/A,,Overcast,270,2013-01-31 03:55:00
11:15 PM,53.6,50.0,88,29.82,10.0,West,11.5,19.6,N/A,Rain,Light Rain,260,2013-01-31 04:15:00
11:35 PM,53.6,50.0,88,29.83,10.0,West,10.4,20.7,N/A,,Overcast,260,2013-01-31 04:35:00
11:55 PM,53.6,46.4,77,29.83,10.0,West,16.1,24.2,N/A,,Overcast,260,2013-01-31 04:55:00